Weather History for Christchurch, New Zealand

Change the Weather History Date:

Tuesday, October 29, 2013

  Actual Average Record
Temperature  
Mean Temperature 48 °F -  
Max Temperature 60 °F 62 °F 75 °F (1996)
Min Temperature 35 °F 43 °F 32 °F (2002)
Degree Days  
Heating Degree Days 18    
Moisture  
Dew Point 42 °F    
Average Humidity 75    
Maximum Humidity 100    
Minimum Humidity 48    
Precipitation  
Precipitation 0.00 in - - ()
Sea Level Pressure  
Sea Level Pressure 29.93 in    
Wind  
Wind Speed 9 mph ()    
Max Wind Speed 20 mph    
Max Gust Speed -    
Visibility 6.2 miles    
Events      
Averages and records for this station are not official NWS values.
T = Trace of Precipitation, MM = Missing Value Source: Averaged Metar Reports

Daily Weather History Graph

Daily Weather History Graph

Search for Another Location

Airport:

Trip Planner

Search our weather history database for the weather conditions in past years. The results will help you decide how hot, cold, wet, or windy it might be!

Date:

Astronomy

Oct. 29, 2013 Rise Set
Actual Time 6:16 AM NZDT 8:11 PM NZDT
Civil Twilight 5:45 AM NZDT 8:41 PM NZDT
Nautical Twilight 5:08 AM NZDT 9:19 PM NZDT
Astronomical Twilight 4:27 AM NZDT 10:00 PM NZDT
Moon 3:11 AM NZDT (10/29) 2:27 PM NZDT (10/29)
Length of Visible Light 14h 55m
Length of Day
13h 54m
Waning Crescent, 31% of the Moon is Illuminated
Oct 29
Waning Crescent
Nov 4
New
Nov 10
First Quarter
Nov 18
Full
Nov 26
Last Quarter

Hourly Weather History & Observations

Time (NZDT) Temp. Windchill Dew Point Humidity Pressure Visibility Wind Dir Wind Speed Gust Speed Precip Events Conditions
12:00 AM 46.4 °F 41.5 °F 39.2 °F 76% 30.01 in 6.2 mi ENE 10.4 mph - N/A   Unknown
12:30 AM 41.0 °F 35.8 °F 37.4 °F 87% 30.01 in 6.2 mi NE 8.1 mph - N/A   Unknown
1:00 AM 41.0 °F 37.1 °F 37.4 °F 87% 30.01 in 6.2 mi NE 5.8 mph - N/A   Unknown
1:30 AM 41.0 °F 38.0 °F 39.2 °F 93% 30.01 in 6.2 mi NNE 4.6 mph - N/A   Unknown
2:00 AM 39.2 °F 35.9 °F 35.6 °F 87% 29.98 in 6.2 mi NE 4.6 mph - N/A   Unknown
2:30 AM 37.4 °F 33.8 °F 35.6 °F 93% 29.98 in 6.2 mi NE 4.6 mph - N/A   Unknown
3:00 AM 37.4 °F 34.9 °F 35.6 °F 93% 29.98 in 6.2 mi NNE 3.5 mph - N/A   Unknown
3:30 AM 37.4 °F 33.8 °F 35.6 °F 93% 29.98 in 6.2 mi NE 4.6 mph - N/A   Unknown
4:00 AM 37.4 °F 32.1 °F 33.8 °F 87% 29.98 in 6.2 mi NE 6.9 mph - N/A   Unknown
4:30 AM 37.4 °F - 35.6 °F 93% 29.98 in 6.2 mi NNE 2.3 mph - N/A   Unknown
5:00 AM 37.4 °F 33.8 °F 35.6 °F 93% 29.98 in 6.2 mi North 4.6 mph - N/A   Unknown
5:30 AM 37.4 °F 32.8 °F 35.6 °F 93% 29.95 in 6.2 mi NNE 5.8 mph - N/A   Unknown
6:00 AM 37.4 °F - 35.6 °F 93% 29.98 in 6.2 mi NNE 2.3 mph - N/A   Unknown
6:30 AM 37.4 °F 34.9 °F 35.6 °F 93% 29.98 in 6.2 mi NNE 3.5 mph - N/A   Unknown
7:00 AM 35.6 °F 32.8 °F 35.6 °F 100% 29.98 in 6.2 mi North 3.5 mph - N/A   Unknown
7:30 AM 39.2 °F - 37.4 °F 93% 29.98 in 6.2 mi North 2.3 mph - N/A   Unknown
8:00 AM 42.8 °F 41.1 °F 39.2 °F 87% 29.98 in 6.2 mi NE 3.5 mph - N/A   Unknown
8:30 AM 48.2 °F - 39.2 °F 71% 29.98 in 6.2 mi NE 8.1 mph - N/A   Unknown
9:00 AM 51.8 °F - 39.2 °F 62% 29.98 in 6.2 mi NE 9.2 mph - N/A   Unknown
9:30 AM 53.6 °F - 42.8 °F 67% 29.98 in 6.2 mi ENE 9.2 mph - N/A   Unknown
10:00 AM 55.4 °F - 39.2 °F 54% 29.98 in 6.2 mi ENE 11.5 mph - N/A   Unknown
10:30 AM 57.2 °F - 37.4 °F 48% 29.98 in 6.2 mi ENE 11.5 mph - N/A   Unknown
11:00 AM 59.0 °F - 39.2 °F 48% 29.95 in 6.2 mi ENE 13.8 mph - N/A   Unknown
11:30 AM 59.0 °F - 39.2 °F 48% 29.95 in 6.2 mi ENE 15.0 mph - N/A   Unknown
12:00 PM 59.0 °F - 42.8 °F 55% 29.95 in 6.2 mi East 13.8 mph - N/A   Unknown
12:30 PM 59.0 °F - 41.0 °F 51% 29.95 in 6.2 mi ENE 12.7 mph - N/A   Unknown
1:00 PM 60.8 °F - 42.8 °F 52% 29.95 in 6.2 mi ENE 15.0 mph - N/A   Unknown
1:30 PM 60.8 °F - 44.6 °F 55% 29.92 in 6.2 mi East 13.8 mph - N/A   Unknown
2:00 PM 60.8 °F - 46.4 °F 59% 29.92 in 6.2 mi East 15.0 mph - N/A   Unknown
2:30 PM 60.8 °F - 46.4 °F 59% 29.92 in 6.2 mi East 16.1 mph - N/A   Unknown
3:00 PM 59.0 °F - 46.4 °F 63% 29.92 in 6.2 mi East 16.1 mph - N/A   Unknown
3:30 PM 60.8 °F - 44.6 °F 55% 29.89 in 6.2 mi East 16.1 mph - N/A   Unknown
4:00 PM 60.8 °F - 46.4 °F 59% 29.89 in 6.2 mi East 16.1 mph - N/A   Unknown
4:30 PM 59.0 °F - 46.4 °F 63% 29.89 in 6.2 mi ENE 19.6 mph - N/A   Unknown
5:00 PM 59.0 °F - 42.8 °F 55% 29.86 in 6.2 mi East 16.1 mph - N/A   Unknown
5:30 PM 59.0 °F - 44.6 °F 59% 29.86 in 6.2 mi ENE 18.4 mph - N/A   Unknown
6:00 PM 57.2 °F - 48.2 °F 72% 29.86 in 6.2 mi ENE 19.6 mph - N/A   Unknown
6:30 PM 57.2 °F - 48.2 °F 72% 29.86 in 6.2 mi ENE 18.4 mph - N/A   Unknown
7:00 PM 55.4 °F - 48.2 °F 77% 29.86 in 6.2 mi East 17.3 mph - N/A   Unknown
7:30 PM 55.4 °F - 48.2 °F 77% 29.83 in 6.2 mi East 18.4 mph - N/A   Unknown
8:00 PM 53.6 °F - 48.2 °F 82% 29.83 in 6.2 mi East 16.1 mph - N/A   Unknown
8:30 PM 53.6 °F - 46.4 °F 77% 29.86 in 6.2 mi East 13.8 mph - N/A   Unknown
9:00 PM 53.6 °F - 48.2 °F 82% 29.86 in 6.2 mi East 13.8 mph - N/A   Unknown
9:30 PM 53.6 °F - 48.2 °F 82% 29.86 in 6.2 mi East 11.5 mph - N/A   Unknown
10:00 PM 51.8 °F - 48.2 °F 88% 29.86 in 6.2 mi East 12.7 mph - N/A   Unknown
10:30 PM 51.8 °F - 48.2 °F 88% 29.86 in 6.2 mi East 12.7 mph - N/A   Unknown
11:00 PM 51.8 °F - 48.2 °F 88% 29.83 in 6.2 mi ESE 11.5 mph - N/A   Unknown
11:30 PM 51.8 °F - 48.2 °F 88% 29.83 in 6.2 mi ESE 8.1 mph - N/A   Unknown